English version
lugares datos climáticos artículos

datos de Mairena del Aljarafe, Sevilla, España
Año Mes Dia Mostrar

  Fecha       hora        Temp.ext.    Hum.ext.  Dir.Viento   Vel.Viento  Presion al NM   T.int. Prec.hoy 

   16-07-2019    13:05      24.0º(-3.2)     77%      202 (S)      4.8 km/h    1013.9 hpa     27.7º    0.0 mm
   16-07-2019    13:00      23.7º(-3.1)     79%      180 (S)      1.6 km/h    1013.8 hpa     27.7º    0.0 mm
   16-07-2019    12:55      23.5º(-3.2)     79%      090 (E)      3.2 km/h    1013.8 hpa     27.7º    0.0 mm
   16-07-2019    12:50      23.4º(-3.2)     79%      090 (E)      3.2 km/h    1013.9 hpa     27.7º    0.0 mm
   16-07-2019    12:45      23.2º(-3.2)     80%      202 (S)      3.2 km/h    1013.9 hpa     27.7º    0.0 mm
   16-07-2019    12:40      22.9º(-3.3)     81%      225(SW)      3.2 km/h    1013.9 hpa     27.7º    0.0 mm
   16-07-2019    12:35      22.8º(-3.3)     81%      202 (S)      3.2 km/h    1013.9 hpa     27.7º    0.0 mm
   16-07-2019    12:30      22.7º(-3.2)     81%      247(SW)      3.2 km/h    1013.9 hpa     27.7º    0.0 mm
   16-07-2019    12:25      22.7º(-2.9)     81%      225(SW)      3.2 km/h    1013.9 hpa     27.6º    0.0 mm
   16-07-2019    12:20      22.6º(-2.8)     81%      247(SW)      3.2 km/h    1013.9 hpa     27.6º    0.0 mm
   16-07-2019    12:15      22.5º(-2.8)     81%      247(SW)      3.2 km/h    1013.8 hpa     27.6º    0.0 mm
   16-07-2019    12:10      22.4º(-2.7)     82%      045(NE)      1.6 km/h    1013.8 hpa     27.6º    0.0 mm
   16-07-2019    12:05      22.3º(-2.5)     83%      157(SE)      1.6 km/h    1013.8 hpa     27.6º    0.0 mm
   16-07-2019    12:00      22.1º(-2.7)     83%      202 (S)      1.6 km/h    1013.8 hpa     27.4º    0.0 mm
   16-07-2019    11:55      22.1º(-2.5)     83%      202 (S)      1.6 km/h    1013.8 hpa     27.4º    0.0 mm
   16-07-2019    11:50      22.1º(-2.3)     83%      202 (S)      1.6 km/h    1013.8 hpa     27.4º    0.0 mm
   16-07-2019    11:45      21.9º(-2.3)     84%      247(SW)      3.2 km/h    1013.9 hpa     27.4º    0.0 mm
   16-07-2019    11:40      21.8º(-2.3)     84%         -         0.0 km/h    1013.8 hpa     27.4º    0.0 mm
   16-07-2019    11:35      21.7º(-2.3)     84%      225(SW)      1.6 km/h    1013.9 hpa     27.4º    0.0 mm
   16-07-2019    11:30      21.7º(-2.1)     84%      225(SW)      3.2 km/h    1013.9 hpa     27.3º    0.0 mm
   16-07-2019    11:25      21.7º(-1.9)     85%      247(SW)      1.6 km/h    1013.9 hpa     27.3º    0.0 mm
   16-07-2019    11:20      21.5º(-1.8)     85%         -         0.0 km/h    1013.9 hpa     27.3º    0.0 mm
   16-07-2019    11:15      21.3º(-1.9)     86%         -         0.0 km/h    1013.8 hpa     27.3º    0.0 mm
   16-07-2019    11:10      21.3º(-1.6)     86%      225(SW)      1.6 km/h    1013.9 hpa     27.3º    0.0 mm
   16-07-2019    11:05      21.2º(-1.4)     86%      225(SW)      3.2 km/h    1013.9 hpa     27.2º    0.0 mm
   16-07-2019    11:00      21.2º(-1.0)     87%      202 (S)      3.2 km/h    1013.9 hpa     27.2º    0.0 mm
   16-07-2019    10:55      21.1º(-1.0)     87%      247(SW)      3.2 km/h    1013.8 hpa     27.2º    0.0 mm
   16-07-2019    10:50      21.1º(-0.8)     87%      247(SW)      3.2 km/h    1013.8 hpa     27.2º    0.0 mm
   16-07-2019    10:45      21.1º(-0.7)     87%      202 (S)      3.2 km/h    1013.8 hpa     27.2º    0.0 mm
   16-07-2019    10:40      20.9º(-0.8)     88%      202 (S)      1.6 km/h    1013.8 hpa     27.2º    0.0 mm
   16-07-2019    10:35      20.8º(-0.9)     88%      202 (S)      1.6 km/h    1013.8 hpa     27.2º    0.0 mm
   16-07-2019    10:30      20.8º(-0.9)     89%      180 (S)      1.6 km/h    1013.7 hpa     27.1º    0.0 mm
   16-07-2019    10:25      20.7º(-0.8)     89%      225(SW)      1.6 km/h    1013.8 hpa     27.1º    0.0 mm
   16-07-2019    10:20      20.6º(-0.8)     89%      225(SW)      1.6 km/h    1013.7 hpa     27.1º    0.0 mm
   16-07-2019    10:15      20.5º(-0.8)     89%      067(NE)      1.6 km/h    1013.7 hpa     27.1º    0.0 mm
   16-07-2019    10:10      20.4º(-0.8)     89%      157(SE)      1.6 km/h    1013.7 hpa     27.1º    0.0 mm
   16-07-2019    10:05      20.3º(-0.9)     90%         -         0.0 km/h    1013.7 hpa     27.1º    0.0 mm
   16-07-2019    10:00      20.2º(-0.9)     90%         -         0.0 km/h    1013.7 hpa     27.1º    0.0 mm
   16-07-2019    09:55      20.1º(-0.8)     90%      225(SW)      1.6 km/h    1013.7 hpa     27.1º    0.0 mm
   16-07-2019    09:50      20.0º(-0.9)     90%      202 (S)      1.6 km/h    1013.8 hpa     27.1º    0.0 mm
   16-07-2019    09:45      19.9º(-0.9)     90%         -         0.0 km/h    1013.7 hpa     27.1º    0.0 mm
   16-07-2019    09:40      19.8º(-0.9)     90%         -         0.0 km/h    1013.6 hpa     27.1º    0.0 mm
   16-07-2019    09:35      19.8º(-0.8)     90%         -         0.0 km/h    1013.7 hpa     27.1º    0.0 mm
   16-07-2019    09:30      19.7º(-0.8)     90%         -         0.0 km/h    1013.6 hpa     27.1º    0.0 mm
   16-07-2019    09:25      19.7º(-0.7)     90%         -         0.0 km/h    1013.6 hpa     27.1º    0.0 mm
   16-07-2019    09:20      19.6º(-0.8)     90%         -         0.0 km/h    1013.6 hpa     27.1º    0.0 mm
   16-07-2019    09:15      19.6º(-0.7)     91%         -         0.0 km/h    1013.6 hpa     27.1º    0.0 mm
   16-07-2019    09:10      19.4º(-0.9)     91%         -         0.0 km/h    1013.6 hpa     27.1º    0.0 mm
   16-07-2019    09:05      19.4º(-0.9)     92%         -         0.0 km/h    1013.7 hpa     27.1º    0.0 mm
   16-07-2019    09:00      19.3º(-0.9)     91%         -         0.0 km/h    1013.6 hpa     27.1º    0.0 mm
   16-07-2019    08:55      19.3º(-0.8)     91%         -         0.0 km/h    1013.5 hpa     27.1º    0.0 mm
   16-07-2019    08:50      19.2º(-0.8)     92%         -         0.0 km/h    1013.4 hpa     27.1º    0.0 mm
   16-07-2019    08:45      19.2º(-0.7)     92%      180 (S)      1.6 km/h    1013.4 hpa     27.1º    0.0 mm
   16-07-2019    08:40      19.1º(-0.7)     92%      112 (E)      1.6 km/h    1013.3 hpa     27.2º    0.0 mm
   16-07-2019    08:35      19.1º(-0.7)     92%      202 (S)      1.6 km/h    1013.3 hpa     27.2º    0.0 mm
   16-07-2019    08:30      19.0º(-0.8)     92%      180 (S)      1.6 km/h    1013.3 hpa     27.2º    0.0 mm
   16-07-2019    08:25      18.9º(-0.8)     92%      202 (S)      1.6 km/h    1013.2 hpa     27.2º    0.0 mm
   16-07-2019    08:20      18.8º(-0.9)     92%      157(SE)      1.6 km/h    1013.2 hpa     27.2º    0.0 mm
   16-07-2019    08:15      18.8º(-0.9)     92%      202 (S)      3.2 km/h    1013.3 hpa     27.2º    0.0 mm
   16-07-2019    08:10      18.8º(-0.8)     92%      067(NE)      1.6 km/h    1013.2 hpa     27.3º    0.0 mm
   16-07-2019    08:05      18.8º(-0.8)     92%      202 (S)      1.6 km/h    1013.2 hpa     27.3º    0.0 mm
   16-07-2019    08:00      18.7º(-0.9)     92%      157(SE)      1.6 km/h    1013.2 hpa     27.3º    0.0 mm
   16-07-2019    07:55      18.7º(-0.9)     93%      202 (S)      1.6 km/h    1013.2 hpa     27.3º    0.0 mm
   16-07-2019    07:50      18.7º(-0.9)     93%      202 (S)      3.2 km/h    1013.2 hpa     27.3º    0.0 mm
   16-07-2019    07:45      18.7º(-0.9)     93%      202 (S)      1.6 km/h    1013.2 hpa     27.3º    0.0 mm
   16-07-2019    07:40      18.7º(-0.9)     93%      202 (S)      1.6 km/h    1013.2 hpa     27.3º    0.0 mm
   16-07-2019    07:35      18.7º(-0.9)     93%      157(SE)      1.6 km/h    1013.2 hpa     27.4º    0.0 mm
   16-07-2019    07:30      18.6º(-1.0)     94%      225(SW)      1.6 km/h    1013.1 hpa     27.4º    0.0 mm
   16-07-2019    07:25      18.6º(-1.0)     94%      135(SE)      1.6 km/h    1012.9 hpa     27.4º    0.0 mm
   16-07-2019    07:20      18.6º(-1.1)     94%      225(SW)      1.6 km/h    1012.9 hpa     27.4º    0.0 mm
   16-07-2019    07:15      18.6º(-1.0)     94%      202 (S)      1.6 km/h    1012.9 hpa     27.4º    0.0 mm
   16-07-2019    07:10      18.6º(-1.0)     94%      202 (S)      1.6 km/h    1012.9 hpa     27.4º    0.0 mm
   16-07-2019    07:05      18.6º(-1.0)     94%      225(SW)      1.6 km/h    1012.8 hpa     27.4º    0.0 mm
   16-07-2019    07:00      18.7º(-1.0)     94%         -         0.0 km/h    1012.8 hpa     27.4º    0.0 mm
   16-07-2019    06:55      18.7º(-0.9)     94%         -         0.0 km/h    1012.8 hpa     27.4º    0.0 mm
   16-07-2019    06:50      18.6º(-1.0)     94%         -         0.0 km/h    1012.7 hpa     27.6º    0.0 mm
   16-07-2019    06:45      18.6º(-1.0)     94%      180 (S)      1.6 km/h    1012.6 hpa     27.6º    0.0 mm
   16-07-2019    06:40      18.7º(-0.9)     94%         -         0.0 km/h    1012.6 hpa     27.6º    0.0 mm
   16-07-2019    06:35      18.6º(-1.0)     94%         -         0.0 km/h    1012.6 hpa     27.7º    0.0 mm
   16-07-2019    06:30      18.6º(-1.0)     94%         -         0.0 km/h    1012.7 hpa     27.7º    0.0 mm
   16-07-2019    06:25      18.6º(-1.0)     94%      225(SW)      1.6 km/h    1012.7 hpa     27.7º    0.0 mm
   16-07-2019    06:20      18.6º(-1.0)     94%      225(SW)      3.2 km/h    1012.8 hpa     27.7º    0.0 mm
   16-07-2019    06:15      18.6º(-1.0)     94%      225(SW)      3.2 km/h    1012.7 hpa     27.7º    0.0 mm
   16-07-2019    06:10      18.6º(-1.0)     94%      225(SW)      4.8 km/h    1012.7 hpa     27.7º    0.0 mm
   16-07-2019    06:05      18.6º(-1.1)     94%      202 (S)      3.2 km/h    1012.7 hpa     27.8º    0.0 mm
   16-07-2019    06:00      18.7º(-1.0)     94%      225(SW)      4.8 km/h    1012.7 hpa     27.8º    0.0 mm
   16-07-2019    05:55      18.7º(-1.0)     94%      202 (S)      3.2 km/h    1012.5 hpa     27.8º    0.0 mm
   16-07-2019    05:50      18.7º(-1.0)     94%      225(SW)      4.8 km/h    1012.5 hpa     27.8º    0.0 mm
   16-07-2019    05:45      18.7º(-1.0)     94%      225(SW)      4.8 km/h    1012.6 hpa     27.8º    0.0 mm
   16-07-2019    05:40      18.7º(-1.0)     94%      202 (S)      4.8 km/h    1012.5 hpa     27.8º    0.0 mm
   16-07-2019    05:35      18.8º(-1.0)     94%      225(SW)      6.4 km/h    1012.5 hpa     27.8º    0.0 mm
   16-07-2019    05:30      18.8º(-1.0)     94%      225(SW)      4.8 km/h    1012.5 hpa     27.8º    0.0 mm
   16-07-2019    05:25      18.8º(-1.0)     94%      225(SW)      4.8 km/h    1012.5 hpa     27.8º    0.0 mm
   16-07-2019    05:20      18.9º(-0.9)     94%      225(SW)      4.8 km/h    1012.5 hpa     27.8º    0.0 mm
   16-07-2019    05:15      18.9º(-1.0)     94%      225(SW)      3.2 km/h    1012.4 hpa     27.8º    0.0 mm
   16-07-2019    05:10      18.9º(-1.0)     94%      225(SW)      4.8 km/h    1012.5 hpa     27.8º    0.0 mm
   16-07-2019    05:05      19.0º(-0.9)     94%      225(SW)      3.2 km/h    1012.4 hpa     27.8º    0.0 mm
   16-07-2019    05:00      19.1º(-0.8)     93%      225(SW)      3.2 km/h    1012.4 hpa     27.8º    0.0 mm
   16-07-2019    04:55      19.1º(-0.8)     93%      202 (S)      3.2 km/h    1012.4 hpa     27.8º    0.0 mm
   16-07-2019    04:50      19.2º(-0.7)     93%      202 (S)      3.2 km/h    1012.5 hpa     27.8º    0.0 mm
   16-07-2019    04:45      19.3º(-0.6)     93%         -         0.0 km/h    1012.4 hpa     27.8º    0.0 mm
   16-07-2019    04:40      19.4º(-0.5)     93%      180 (S)      1.6 km/h    1012.4 hpa     27.8º    0.0 mm
   16-07-2019    04:35      19.4º(-0.6)     93%      225(SW)      1.6 km/h    1012.4 hpa     27.8º    0.0 mm
   16-07-2019    04:30      19.5º(-0.5)     93%      180 (S)      1.6 km/h    1012.4 hpa     27.8º    0.0 mm
   16-07-2019    04:25      19.6º(-0.5)     93%      225(SW)      1.6 km/h    1012.4 hpa     27.8º    0.0 mm
   16-07-2019    04:20      19.6º(-0.5)     93%      112 (E)      1.6 km/h    1012.4 hpa     27.8º    0.0 mm
   16-07-2019    04:15      19.7º(-0.4)     93%         -         0.0 km/h    1012.5 hpa     27.8º    0.0 mm
   16-07-2019    04:10      19.8º(-0.4)     93%         -         0.0 km/h    1012.4 hpa     27.9º    0.0 mm
   16-07-2019    04:05      19.8º(-0.4)     93%      157(SE)      1.6 km/h    1012.5 hpa     27.9º    0.0 mm
   16-07-2019    04:00      19.8º(-0.4)     93%      180 (S)      1.6 km/h    1012.5 hpa     27.9º    0.0 mm
   16-07-2019    03:55      19.8º(-0.4)     93%      202 (S)      3.2 km/h    1012.5 hpa     27.9º    0.0 mm
   16-07-2019    03:50      19.9º(-0.3)     93%      202 (S)      1.6 km/h    1012.5 hpa     27.9º    0.0 mm
   16-07-2019    03:45      19.8º(-0.4)     93%         -         0.0 km/h    1012.6 hpa     28.1º    0.0 mm
   16-07-2019    03:40      19.8º(-0.5)     93%         -         0.0 km/h    1012.6 hpa     28.1º    0.0 mm
   16-07-2019    03:35      19.8º(-0.5)     92%      225(SW)      1.6 km/h    1012.5 hpa     28.1º    0.0 mm
   16-07-2019    03:30      19.8º(-0.5)     92%      225(SW)      1.6 km/h    1012.7 hpa     28.1º    0.0 mm
   16-07-2019    03:25      19.8º(-0.5)     92%      225(SW)      1.6 km/h    1012.6 hpa     28.1º    0.0 mm
   16-07-2019    03:20      19.8º(-0.6)     92%      225(SW)      1.6 km/h    1012.6 hpa     28.1º    0.0 mm
   16-07-2019    03:15      19.8º(-0.7)     92%      225(SW)      3.2 km/h    1012.6 hpa     28.1º    0.0 mm
   16-07-2019    03:10      19.8º(-0.8)     92%      202 (S)      1.6 km/h    1012.7 hpa     28.1º    0.0 mm
   16-07-2019    03:05      19.8º(-0.8)     92%      202 (S)      1.6 km/h    1012.8 hpa     28.1º    0.0 mm
   16-07-2019    03:00      19.9º(-0.7)     91%      202 (S)      1.6 km/h    1012.8 hpa     28.1º    0.0 mm
   16-07-2019    02:55      19.9º(-0.7)     91%      202 (S)      3.2 km/h    1012.9 hpa     28.1º    0.0 mm
   16-07-2019    02:50      19.9º(-0.8)     91%      202 (S)      3.2 km/h    1012.9 hpa     28.1º    0.0 mm
   16-07-2019    02:45      19.9º(-0.8)     91%      202 (S)      3.2 km/h    1012.9 hpa     28.1º    0.0 mm
   16-07-2019    02:40      19.9º(-0.8)     90%      225(SW)      1.6 km/h    1012.8 hpa     28.1º    0.0 mm
   16-07-2019    02:35      20.0º(-0.7)     90%      202 (S)      3.2 km/h    1012.9 hpa     27.9º    0.0 mm
   16-07-2019    02:30      20.0º(-0.8)     89%      202 (S)      3.2 km/h    1012.8 hpa     27.9º    0.0 mm
   16-07-2019    02:25      19.9º(-0.9)     89%      202 (S)      3.2 km/h    1012.9 hpa     27.9º    0.0 mm
   16-07-2019    02:20      20.0º(-0.8)     88%      225(SW)      3.2 km/h    1012.9 hpa     27.9º    0.0 mm
   16-07-2019    02:15      20.0º(-0.8)     89%      225(SW)      3.2 km/h    1012.9 hpa     27.9º    0.0 mm
   16-07-2019    02:10      19.9º(-1.0)     87%         -         0.0 km/h    1012.8 hpa     27.9º    0.0 mm
   16-07-2019    02:05      19.9º(-1.0)     87%      202 (S)      1.6 km/h    1012.8 hpa     27.8º    0.0 mm
   16-07-2019    02:00      19.9º(-1.0)     87%      202 (S)      3.2 km/h    1012.9 hpa     27.8º    0.0 mm
   16-07-2019    01:55      20.0º(----)     86%      202 (S)      3.2 km/h    1012.9 hpa     27.8º    0.0 mm
   16-07-2019    01:50      20.1º(----)     86%      225(SW)      1.6 km/h    1012.9 hpa     27.8º    0.0 mm
   16-07-2019    01:45      20.1º(----)     85%      180 (S)      1.6 km/h    1012.9 hpa     27.8º    0.0 mm
   16-07-2019    01:40      20.1º(----)     85%      225(SW)      1.6 km/h    1012.9 hpa     27.8º    0.0 mm
   16-07-2019    01:35      20.2º(----)     85%      202 (S)      1.6 km/h    1013.0 hpa     27.8º    0.0 mm
   16-07-2019    01:30      20.2º(----)     85%      225(SW)      3.2 km/h    1013.0 hpa     27.8º    0.0 mm
   16-07-2019    01:25      20.3º(----)     84%      225(SW)      4.8 km/h    1013.0 hpa     27.8º    0.0 mm
   16-07-2019    01:20      20.3º(----)     84%      202 (S)      3.2 km/h    1012.9 hpa     27.9º    0.0 mm
   16-07-2019    01:15      20.4º(----)     83%      202 (S)      3.2 km/h    1012.9 hpa     27.9º    0.0 mm
   16-07-2019    01:10      20.6º(----)     83%      270 (W)      3.2 km/h    1012.9 hpa     28.1º    0.0 mm
   16-07-2019    01:05      20.7º(----)     83%      247(SW)      3.2 km/h    1013.0 hpa     28.1º    0.0 mm
   16-07-2019    01:00      20.7º(----)     83%      270 (W)      4.8 km/h    1012.9 hpa     28.1º    0.0 mm
   16-07-2019    00:55      20.8º(----)     82%      270 (W)      1.6 km/h    1013.0 hpa     28.1º    0.0 mm
   16-07-2019    00:50      20.9º(----)     82%      247(SW)      6.4 km/h    1013.0 hpa     28.1º    0.0 mm
   16-07-2019    00:45      20.9º(----)     82%      247(SW)      4.8 km/h    1013.0 hpa     28.1º    0.0 mm
   16-07-2019    00:40      21.0º(----)     82%      225(SW)      4.8 km/h    1013.0 hpa     28.1º    0.0 mm
   16-07-2019    00:35      21.1º(----)     82%      247(SW)      6.4 km/h    1013.0 hpa     28.1º    0.0 mm
   16-07-2019    00:30      21.2º(----)     81%      247(SW)      4.8 km/h    1013.0 hpa     28.1º    0.0 mm
   16-07-2019    00:25      21.3º(----)     81%      247(SW)      6.4 km/h    1013.0 hpa     28.1º    0.0 mm
   16-07-2019    00:20      21.5º(----)     81%      247(SW)      3.2 km/h    1013.0 hpa     28.1º    0.0 mm
   16-07-2019    00:15      21.6º(----)     80%      247(SW)      4.8 km/h    1012.9 hpa     28.1º    0.0 mm
   16-07-2019    00:10      21.6º(----)     81%      225(SW)      1.6 km/h    1012.9 hpa     28.1º    0.0 mm
   16-07-2019    00:05      21.6º(----)     81%      247(SW)      1.6 km/h    1012.9 hpa     27.9º    0.0 mm
   16-07-2019    00:00      21.6º(----)     80%      247(SW)      6.4 km/h    1012.9 hpa     27.9º    0.0 mm